DW9750 Weather Reports


time (UTC)temp
C
wind
direction
speed
KPH
gust
KPH
rain 1hr
cm
rain 24hr
cm
rain mn
cm
humidity
%
barometer
mb
20260508143014 16 223 0.0 1.6 0.00 0.00 0.00 87 1013.1
20260508141513 16 274 0.0 4.8 0.00 0.00 0.00 89 1013.3
20260508140020 16 267 1.6 6.4 0.00 0.00 0.00 88 1013.2
20260508134510 16 284 0.0 1.6 0.00 0.00 0.00 89 1013.0
20260508133010 16 272 1.6 4.8 0.00 0.00 0.00 88 1013.3
20260508131508 16 278 0.0 1.6 0.00 0.00 0.00 89 1012.9
20260508130017 16 278 0.0 1.6 0.00 0.00 0.00 89 1013.0
20260508124507 16 40 0.0 3.2 0.00 0.00 0.00 89 1013.0
20260508123012 16 16 0.0 3.2 0.00 0.00 0.00 89 1012.8
20260508121610 16 8 0.0 1.6 0.00 0.00 0.00 89 1013.0
20260508120004 16 71 0.0 0.0 0.00 0.00 0.00 88 1013.1
20260508114502 16 72 0.0 3.2 0.00 0.00 0.00 87 1013.3
20260508113004 16 83 0.0 4.8 0.00 0.00 0.00 87 1013.4
20260508111600 16 97 0.0 3.2 0.00 0.00 0.00 86 1013.4
20260508110109 16 55 0.0 0.0 0.00 0.00 0.00 86 1013.4
20260508104559 16 55 0.0 3.2 0.00 0.00 0.00 85 1013.4
20260508103108 16 61 0.0 0.0 0.00 0.00 0.00 84 1013.4
20260508101558 16 61 0.0 0.0 0.00 0.00 0.00 84 1013.5
20260508100056 16 61 0.0 0.0 0.00 0.00 0.00 83 1013.0
20260508094557 16 61 0.0 0.0 0.00 0.00 0.00 83 1013.1
20260508093105 16 61 0.0 3.2 0.00 0.00 0.00 82 1013.2
20260508091556 16 80 0.0 1.6 0.00 0.00 0.00 82 1013.4
20260508084558 16 94 0.0 3.2 0.00 0.00 0.00 82 1013.0
20260508083052 16 77 0.0 3.2 0.00 0.00 0.00 82 1013.2
20260508081550 16 147 0.0 0.0 0.00 0.00 0.00 83 1013.7
20260508080055 16 147 0.0 0.0 0.00 0.00 0.00 83 1013.7
20260508074550 16 147 0.0 0.0 0.00 0.00 0.00 81 1014.1
20260508073048 16 147 0.0 0.0 0.00 0.00 0.00 80 1013.8
20260508071547 16 147 0.0 1.6 0.00 0.00 0.00 79 1014.0
20260508070046 16 149 0.0 0.0 0.00 0.00 0.00 79 1014.2
20260508064545 16 149 0.0 3.2 0.00 0.00 0.00 78 1014.2
20260508063058 16 95 0.0 3.2 0.00 0.00 0.00 78 1014.0
20260508061547 16 176 0.0 0.0 0.00 0.00 0.00 79 1013.6
20260508060045 16 176 0.0 0.0 0.00 0.00 0.00 79 1013.5
20260508054542 16 115 0.0 3.2 0.00 0.00 0.00 79 1013.5
20260508053042 16 32 0.0 3.2 0.00 0.00 0.00 79 1014.8
20260508051541 16 279 0.0 3.2 0.00 0.00 0.00 79 1014.7
20260508050042 16 69 0.0 3.2 0.00 0.00 0.00 79 1014.5
20260508044536 16 319 0.0 4.8 0.00 0.00 0.00 78 1014.3
20260508043052 16 348 0.0 4.8 0.00 0.00 0.00 78 1014.9
20260508041538 16 295 4.8 11.3 0.00 0.00 0.00 78 1015.4
20260508040038 16 335 1.6 11.3 0.00 0.00 0.00 78 1014.4
20260508034533 16 94 0.0 6.4 0.00 0.00 0.00 77 1013.6
20260508033032 16 76 0.0 6.4 0.00 0.00 0.00 76 1013.6
20260508031531 16 83 1.6 6.4 0.00 0.00 0.00 77 1013.5
20260508030039 16 68 0.0 0.0 0.00 0.00 0.00 77 1014.5
20260508024531 17 94 0.0 0.0 0.00 0.00 0.00 77 1014.5
20260508023030 17 61 0.0 3.2 0.00 0.00 0.00 77 1015.0
20260508021530 17 346 0.0 0.0 0.00 0.00 0.00 76 1014.9
20260508020035 17 298 1.6 8.0 0.00 0.00 0.00 76 1014.7
20260508014528 17 289 4.8 11.3 0.00 0.00 0.00 75 1014.2
20260508013028 17 91 3.2 8.0 0.00 0.00 0.00 74 1012.2
20260508011528 17 299 1.6 4.8 0.00 0.00 0.00 75 1013.6
20260508010028 17 117 3.2 6.4 0.00 0.00 0.00 75 1012.3
20260508004526 17 66 3.2 8.0 0.00 0.00 0.00 74 1012.7
20260508003026 17 75 0.0 4.8 0.00 0.00 0.00 75 1013.0
20260508001541 17 78 1.6 6.4 0.00 0.00 0.00 74 1012.9
20260508000025 17 289 0.0 9.7 0.00 0.00 0.00 70 1012.7
20260507234525 18 320 8.0 22.5 0.00 0.00 0.00 70 1013.2
20260507233022 18 89 6.4 11.3 0.00 0.00 0.00 70 1013.3
20260507231531 18 40 6.4 16.1 0.00 0.00 0.00 71 1013.7
20260507230025 18 113 6.4 11.3 0.00 0.00 0.00 72 1013.7
20260507224531 18 116 0.0 6.4 0.00 0.00 0.00 72 1014.6
20260507223019 18 334 1.6 14.5 0.00 0.00 0.00 72 1014.7
20260507221521 19 324 1.6 8.0 0.00 0.00 0.00 73 1014.5
20260507220033 19 7 3.2 11.3 0.00 0.00 0.00 69 1015.2
20260507214517 19 87 0.0 4.8 0.00 0.00 0.00 68 1015.3
20260507213016 19 90 4.8 11.3 0.00 0.00 0.00 67 1014.7
20260507211515 19 86 4.8 11.3 0.00 0.00 0.00 66 1015.4
20260507210016 19 26 0.0 8.0 0.00 0.00 0.00 69 1015.6
20260507204515 20 26 1.6 12.9 0.00 0.00 0.00 65 1015.4
20260507203012 20 43 1.6 12.9 0.00 0.00 0.00 68 1015.4
20260507201511 19 158 1.6 16.1 0.00 0.00 0.00 69 1015.2
20260507200008 19 77 1.6 14.5 0.00 0.00 0.00 70 1014.8
20260507194505 18 37 3.2 14.5 0.00 0.00 0.00 71 1015.5
20260507193004 18 57 3.2 11.3 0.00 0.00 0.00 72 1016.0
20260507191503 18 350 1.6 6.4 0.00 0.00 0.00 74 1016.1
20260507190101 18 4 1.6 6.4 0.00 0.00 0.00 72 1016.3
20260507184605 17 78 1.6 8.0 0.00 0.00 0.00 75 1016.5
20260507183054 17 43 1.6 11.3 0.00 0.00 0.00 78 1016.9
20260507181600 16 14 3.2 14.5 0.00 0.00 0.00 81 1016.7
20260507180050 16 85 6.4 12.9 0.00 0.00 0.00 81 1016.8
20260507174555 16 108 1.6 9.7 0.00 0.00 0.00 82 1016.9
20260507173049 16 25 0.0 9.7 0.00 0.00 0.00 83 1016.3
20260507171550 15 326 1.6 11.3 0.00 0.00 0.00 80 1016.9
20260507170051 15 18 1.6 8.0 0.00 0.00 0.00 81 1016.8
20260507164547 15 80 1.6 12.9 0.00 0.18 0.00 82 1017.3
20260507163046 15 303 0.0 9.7 0.00 0.18 0.00 81 1017.4
20260507161545 15 303 3.2 11.3 0.00 0.18 0.00 82 1016.8
20260507160044 14 104 1.6 9.7 0.00 0.18 0.00 83 1016.3
20260507154547 14 316 3.2 11.3 0.00 0.23 0.00 84 1016.7
20260507153049 14 206 1.6 9.7 0.00 0.23 0.00 85 1017.1
20260507151540 14 1 3.2 11.3 0.00 0.23 0.00 86 1017.2
20260507150043 14 87 4.8 12.9 0.00 0.23 0.00 85 1016.8
20260507144538 14 21 1.6 14.5 0.00 0.23 0.00 86 1017.0
20260507143037 13 261 3.2 12.9 0.00 0.23 0.00 87 1017.3